When you browse on this site, cookies collect data to enhance your experience and personalize the content and advertising you see.
Visit our Privacy Policy to learn more. By continuing to use the site, you agree to this use of cookies and data.
  • In Schweiz
  • Länderverzeichnis
  • Für 7 Tage
  • Wassertemperatur
  • Wetterkarte
  • Widgets
  • user-avatar
    Anmelden

    Stündliche Wetter Birmingham

    Heute, 18 September, Mittwoch

    Zeit Temperatur Niederschläge Wind Luftdruck Luftfeuchtigkeit
    00:00 +9°C° 0 mm 1 m/S 758 mmHg 87%
    01:00 +9°C° 0 mm 1 m/S 758 mmHg 87%
    02:00 +9°C° 0 mm 1 m/S 758 mmHg 87%
    03:00 +8°C° 0 mm 0 m/S 758 mmHg 87%
    04:00 +7°C° 0 mm 0 m/S 758 mmHg 87%
    05:00 +7°C° 0 mm 0 m/S 758 mmHg 87%
    06:00 +7°C° 0 mm 0 m/S 759 mmHg 85%
    07:00 +9°C° 0 mm 0 m/S 759 mmHg 80%
    08:00 +11°C° 0 mm 0 m/S 759 mmHg 74%
    09:00 +13°C° 0 mm 1 m/S 759 mmHg 68%
    10:00 +14°C° 0 mm 1 m/S 759 mmHg 63%
    11:00 +16°C° 0 mm 1 m/S 759 mmHg 58%
    12:00 +18°C° 0 mm 1 m/S 759 mmHg 55%
    13:00 +17°C° 0 mm 2 m/S 759 mmHg 54%
    14:00 +18°C° 0 mm 2 m/S 759 mmHg 54%
    15:00 +18°C° 0 mm 2 m/S 759 mmHg 54%
    16:00 +17°C° 0 mm 2 m/S 759 mmHg 60%
    17:00 +16°C° 0 mm 2 m/S 758 mmHg 66%
    18:00 +15°C° 0 mm 2 m/S 758 mmHg 72%
    19:00 +14°C° 0 mm 2 m/S 759 mmHg 74%
    20:00 +13°C° 0 mm 2 m/S 759 mmHg 75%
    21:00 +12°C° 0 mm 2 m/S 759 mmHg 77%
    22:00 +12°C° 0 mm 2 m/S 759 mmHg 79%
    23:00 +10°C° 0 mm 2 m/S 759 mmHg 81%

    Morgen, 19 September, Donnerstag

    Zeit Temperatur Niederschläge Wind Luftdruck Luftfeuchtigkeit
    00:00 +11°C° 0 mm 1 m/S 759 mmHg 83%
    01:00 +10°C° 0 mm 1 m/S 759 mmHg 85%
    02:00 +10°C° 0 mm 1 m/S 759 mmHg 86%
    03:00 +10°C° 0 mm 1 m/S 759 mmHg 88%
    04:00 +10°C° 0 mm 1 m/S 759 mmHg 88%
    05:00 +10°C° 0 mm 1 m/S 759 mmHg 89%
    06:00 +10°C° 0 mm 1 m/S 759 mmHg 89%
    07:00 +10°C° 0 mm 0 m/S 760 mmHg 83%
    08:00 +12°C° 0 mm 0 m/S 760 mmHg 78%
    09:00 +14°C° 0 mm 0 m/S 760 mmHg 72%
    10:00 +15°C° 0 mm 0 m/S 760 mmHg 67%
    11:00 +19°C° 0 mm 1 m/S 760 mmHg 61%
    12:00 +20°C° 0 mm 1 m/S 760 mmHg 56%
    13:00 +20°C° 0 mm 1 m/S 760 mmHg 55%
    14:00 +21°C° 0 mm 1 m/S 760 mmHg 54%
    15:00 +21°C° 0 mm 1 m/S 759 mmHg 53%
    16:00 +20°C° 0 mm 1 m/S 759 mmHg 58%
    17:00 +19°C° 0 mm 1 m/S 759 mmHg 63%
    18:00 +18°C° 0 mm 1 m/S 759 mmHg 68%
    19:00 +16°C° 0 mm 1 m/S 759 mmHg 71%
    20:00 +15°C° 0 mm 1 m/S 759 mmHg 74%
    21:00 +14°C° 0 mm 1 m/S 759 mmHg 76%
    22:00 +14°C° 0 mm 1 m/S 759 mmHg 78%
    23:00 +13°C° 0 mm 1 m/S 759 mmHg 79%

    übermorgen, 20 September, Freitag

    Zeit Temperatur Niederschläge Wind Luftdruck Luftfeuchtigkeit
    00:00 +13°C° 0 mm 1 m/S 759 mmHg 81%
    01:00 +12°C° 0 mm 1 m/S 758 mmHg 82%
    02:00 +12°C° 0 mm 1 m/S 758 mmHg 83%
    03:00 +12°C° 0 mm 1 m/S 758 mmHg 85%
    04:00 +11°C° 0 mm 1 m/S 757 mmHg 86%
    05:00 +11°C° 0 mm 1 m/S 757 mmHg 87%
    06:00 +9°C° 0 mm 2 m/S 757 mmHg 89%
    07:00 +12°C° 0 mm 2 m/S 757 mmHg 84%
    08:00 +13°C° 0 mm 3 m/S 757 mmHg 79%
    09:00 +14°C° 0 mm 3 m/S 757 mmHg 74%
    10:00 +15°C° 0 mm 4 m/S 756 mmHg 69%
    11:00 +18°C° 0 mm 4 m/S 756 mmHg 64%
    12:00 +19°C° 0 mm 5 m/S 755 mmHg 59%
    13:00 +19°C° 0 mm 5 m/S 754 mmHg 57%
    14:00 +20°C° 0 mm 5 m/S 754 mmHg 54%
    15:00 +20°C° 0 mm 5 m/S 753 mmHg 52%
    16:00 +17°C° 0 mm 5 m/S 752 mmHg 55%
    17:00 +16°C° 0 mm 5 m/S 752 mmHg 58%
    18:00 +15°C° 0 mm 4 m/S 751 mmHg 61%
    19:00 +14°C° 0 mm 5 m/S 751 mmHg 63%
    20:00 +13°C° 0 mm 5 m/S 751 mmHg 65%
    21:00 +12°C° 0 mm 5 m/S 751 mmHg 67%
    22:00 +12°C° 0 mm 5 m/S 750 mmHg 70%
    23:00 +12°C° 0 mm 5 m/S 750 mmHg 73%

    21 September, Samstag

    Zeit Temperatur Niederschläge Wind Luftdruck Luftfeuchtigkeit
    00:00 +11°C° 0 mm 4 m/S 749 mmHg 76%
    01:00 +11°C° 0 mm 4 m/S 748 mmHg 75%
    02:00 +11°C° 0 mm 4 m/S 748 mmHg 74%
    03:00 +11°C° 0 mm 4 m/S 747 mmHg 73%
    04:00 +11°C° 0 mm 4 m/S 747 mmHg 73%
    05:00 +11°C° 0 mm 4 m/S 746 mmHg 73%
    06:00 +10°C° 0 mm 4 m/S 746 mmHg 72%
    07:00 +12°C° 0 mm 5 m/S 745 mmHg 69%
    08:00 +13°C° 0 mm 5 m/S 745 mmHg 65%
    09:00 +14°C° 0 mm 5 m/S 745 mmHg 62%
    10:00 +16°C° 0 mm 5 m/S 744 mmHg 59%
    11:00 +19°C° 0 mm 6 m/S 744 mmHg 57%
    12:00 +21°C° 0 mm 6 m/S 743 mmHg 54%
    13:00 +21°C° 0 mm 6 m/S 743 mmHg 55%
    14:00 +22°C° 0 mm 6 m/S 742 mmHg 55%
    15:00 +23°C° 0 mm 6 m/S 742 mmHg 56%
    16:00 +22°C° 0 mm 5 m/S 741 mmHg 61%
    17:00 +21°C° 0 mm 5 m/S 741 mmHg 67%
    18:00 +20°C° 0 mm 4 m/S 741 mmHg 73%
    19:00 +19°C° 0 mm 4 m/S 740 mmHg 73%
    20:00 +19°C° 0 mm 4 m/S 740 mmHg 74%
    21:00 +17°C° 0 mm 5 m/S 740 mmHg 74%
    22:00 +18°C° 0.2 mm 4 m/S 740 mmHg 77%
    23:00 +18°C° 0.2 mm 4 m/S 739 mmHg 80%

    22 September, Sonntag

    Zeit Temperatur Niederschläge Wind Luftdruck Luftfeuchtigkeit
    00:00 +18°C° 0.2 mm 3 m/S 739 mmHg 83%
    01:00 +18°C° 0.1 mm 3 m/S 739 mmHg 86%
    02:00 +17°C° 0.1 mm 3 m/S 739 mmHg 88%
    03:00 +17°C° 0.1 mm 3 m/S 739 mmHg 91%
    04:00 +17°C° 0.1 mm 3 m/S 739 mmHg 92%
    05:00 +17°C° 0.1 mm 3 m/S 739 mmHg 92%
    06:00 +16°C° 0.1 mm 3 m/S 739 mmHg 93%
    07:00 +15°C° 0.2 mm 4 m/S 739 mmHg 90%
    08:00 +15°C° 0.2 mm 4 m/S 739 mmHg 87%
    09:00 +16°C° 0.2 mm 5 m/S 739 mmHg 84%
    10:00 +16°C° 0.1 mm 5 m/S 739 mmHg 76%
    11:00 +17°C° 0.1 mm 6 m/S 739 mmHg 68%
    12:00 +19°C° 0.1 mm 6 m/S 740 mmHg 60%
    13:00 +19°C° 0.1 mm 6 m/S 739 mmHg 61%
    14:00 +19°C° 0.1 mm 6 m/S 739 mmHg 62%
    15:00 +19°C° 0.1 mm 6 m/S 739 mmHg 62%
    16:00 +17°C° 0.1 mm 6 m/S 740 mmHg 67%
    17:00 +15°C° 0.1 mm 6 m/S 740 mmHg 73%
    18:00 +14°C° 0.1 mm 6 m/S 740 mmHg 78%
    19:00 +13°C° 0 mm 6 m/S 741 mmHg 79%
    20:00 +11°C° 0 mm 6 m/S 742 mmHg 80%
    21:00 +10°C° 0 mm 5 m/S 742 mmHg 81%
    22:00 +10°C° 0 mm 5 m/S 743 mmHg 83%
    23:00 +11°C° 0 mm 4 m/S 743 mmHg 84%

    23 September, Montag

    Zeit Temperatur Niederschläge Wind Luftdruck Luftfeuchtigkeit
    00:00 +10°C° 0 mm 4 m/S 743 mmHg 85%
    01:00 +10°C° 0 mm 4 m/S 743 mmHg 87%
    02:00 +10°C° 0 mm 3 m/S 744 mmHg 89%
    03:00 +10°C° 0 mm 3 m/S 744 mmHg 90%
    04:00 +10°C° 0 mm 3 m/S 744 mmHg 90%
    05:00 +10°C° 0 mm 3 m/S 743 mmHg 90%
    06:00 +10°C° 0 mm 3 m/S 743 mmHg 90%
    07:00 +11°C° 0.1 mm 4 m/S 743 mmHg 89%
    08:00 +12°C° 0.1 mm 4 m/S 743 mmHg 87%
    09:00 +13°C° 0.1 mm 5 m/S 743 mmHg 86%
    10:00 +13°C° 0.6 mm 5 m/S 742 mmHg 88%
    11:00 +13°C° 0.6 mm 6 m/S 742 mmHg 89%
    12:00 +14°C° 0.6 mm 6 m/S 741 mmHg 91%
    13:00 +14°C° 0.5 mm 6 m/S 740 mmHg 92%
    14:00 +15°C° 0.5 mm 6 m/S 740 mmHg 92%
    15:00 +16°C° 0.5 mm 6 m/S 739 mmHg 93%
    16:00 +16°C° 0.5 mm 6 m/S 739 mmHg 93%
    17:00 +17°C° 0.5 mm 6 m/S 739 mmHg 93%
    18:00 +17°C° 0.5 mm 6 m/S 739 mmHg 93%
    19:00 +17°C° 0.1 mm 5 m/S 740 mmHg 93%
    20:00 +16°C° 0.1 mm 5 m/S 740 mmHg 93%
    21:00 +16°C° 0.1 mm 5 m/S 741 mmHg 93%
    22:00 +16°C° 0 mm 5 m/S 741 mmHg 93%
    23:00 +15°C° 0 mm 5 m/S 741 mmHg 93%
    Mehr zeigen